Lapse_Rate
5.2 5.6 5.8 5.4 5.4 5.7 6.3 5.9 5.7 5.8 5.5 5.6 5.4 5.7 5.8 5.9 6.1 6.2 6.1 6.0 5.8 5.8 5.8 5.9 6.0 5.9 5.9 6.0 6.2 6.3 6.5 6.5 6.5 6.5 6.4 6.4 6.3 6.2 6.2 6.1 6.1 6.1 6.0 6.0 6.0 6.0 6.1 6.1 6.1
5.2 5.6 5.4 5.7 5.7 6.5 6.2 5.7 5.7 5.7 5.6 5.7 5.3 5.4 5.6 6.0 6.3 6.5 6.4 6.3 6.1 6.0 5.9 5.9 5.8 5.8 5.9 6.2 6.3 6.5 6.5 6.5 6.6 6.4 6.5 6.5 6.5 6.4 6.3 6.2 6.1 6.1 6.1 6.0 6.1 6.1 6.3 6.2 6.1
5.3 5.5 5.4 5.5 5.7 6.0 6.0 5.8 5.8 5.5 5.6 5.3 6.2 5.6 5.6 6.0 6.1 6.2 6.0 6.1 6.0 5.8 5.8 5.8 5.9 5.9 6.0 6.2 6.4 6.5 6.5 6.5 6.4 6.3 6.4 6.2 6.4 6.4 6.4 6.3 6.3 6.3 6.2 6.0 6.1 6.1 6.2 6.2 6.2
5.3 5.4 5.3 5.1 5.5 5.9 6.0 5.7 5.7 5.9 5.4 5.9 6.1 6.1 5.8 6.1 5.9 5.9 5.8 5.7 5.8 5.7 5.7 5.8 5.9 6.1 6.1 6.1 6.2 6.2 6.3 6.3 6.3 6.3 6.2 6.3 6.2 6.2 6.3 6.2 6.3 6.3 6.3 6.2 6.2 6.3 6.4 6.4 6.2
5.2 5.4 5.4 5.3 5.3 5.4 5.7 5.6 5.4 5.5 5.1 5.9 6.0 6.1 6.1 6.1 5.8 5.8 5.7 5.4 5.5 5.7 5.8 5.9 5.9 5.9 6.1 6.1 6.2 6.2 6.2 6.2 6.4 6.3 6.3 6.2 6.1 6.0 6.1 6.3 6.3 6.2 6.5 6.4 6.4 6.4 6.4 6.4 6.3
5.3 5.6 5.3 5.4 5.5 5.5 5.3 5.4 5.5 5.4 5.2 6.0 6.2 6.7 6.3 5.9 5.8 5.8 5.6 5.0 5.7 5.8 5.8 5.9 5.9 6.0 6.1 6.1 6.1 6.1 6.0 6.1 6.2 6.1 6.2 5.8 5.8 5.9 6.2 6.3 6.3 6.3 6.4 6.4 6.3 6.3 6.4 6.4 6.3
5.5 5.1 5.5 5.4 5.3 5.2 5.1 5.2 5.3 5.2 5.9 5.6 6.0 6.6 6.4 6.1 6.0 5.9 5.7 5.6 5.6 5.5 5.7 5.9 6.0 6.0 6.1 6.1 6.1 6.0 6.2 6.3 6.2 6.0 5.7 5.6 5.6 6.0 6.2 6.3 6.4 6.4 6.4 6.3 6.2 6.1 6.1 6.2 6.2
5.2 4.9 5.1 5.3 5.2 5.4 5.1 5.1 4.9 4.9 5.1 5.7 5.9 6.4 6.6 6.5 6.3 6.0 5.9 5.8 5.8 5.8 5.8 5.9 5.9 6.0 6.1 6.2 6.0 6.1 6.3 6.1 5.9 5.9 5.7 5.6 5.5 5.9 6.0 6.1 6.0 6.3 6.2 6.2 6.3 6.2 6.2 6.2 6.2
5.2 5.0 5.1 5.1 5.2 5.5 5.2 5.5 5.9 5.7 5.5 5.4 5.7 6.2 6.3 6.6 6.5 6.1 6.0 5.9 5.8 5.8 5.8 6.0 6.0 5.9 5.9 6.0 5.9 6.1 6.1 6.0 5.8 5.7 5.6 5.5 5.6 5.8 6.0 6.1 6.1 6.2 6.1 6.0 6.0 6.1 6.2 6.1 6.0
4.9 5.1 5.0 5.1 5.2 5.5 5.6 5.5 5.8 5.5 5.4 5.6 5.7 5.9 6.1 6.2 6.4 6.1 6.0 5.8 5.8 5.8 5.9 5.8 5.9 6.0 5.8 6.0 6.0 6.3 6.2 6.0 6.0 5.8 5.7 5.6 5.6 5.7 6.1 6.0 6.1 5.9 6.0 5.9 5.9 5.9 6.0 6.2 5.6
4.9 5.0 5.4 4.9 5.3 5.6 5.3 5.7 5.3 5.5 5.1 5.4 6.0 6.0 6.0 6.1 6.3 6.1 5.9 5.8 5.7 5.8 6.0 6.0 6.0 6.0 5.8 5.9 6.2 6.2 6.2 5.8 5.9 5.8 5.7 5.7 5.7 5.9 6.1 6.0 6.0 5.9 5.8 5.8 5.8 5.8 6.0 6.0 6.1
5.2 5.2 5.3 5.3 5.2 5.5 5.3 5.1 5.6 5.0 4.9 5.4 5.2 5.9 6.0 6.1 6.1 6.0 5.8 5.8 5.8 5.8 5.9 6.1 6.0 5.8 5.8 6.1 6.2 6.1 6.1 6.0 5.8 5.8 5.7 5.7 5.8 6.0 6.1 6.0 6.0 5.9 5.6 5.6 5.7 5.7 5.8 6.1 6.4
5.1 5.3 5.6 5.1 5.3 5.2 5.4 5.4 5.6 5.8 5.5 5.5 5.3 5.5 5.7 6.0 6.0 6.0 5.9 5.8 5.9 5.8 5.8 6.0 6.0 5.7 6.0 6.2 6.2 6.0 6.0 6.1 6.0 5.9 5.8 5.9 6.0 6.1 5.9 5.9 5.9 5.8 5.4 5.5 5.6 5.7 5.9 6.1 6.4
5.5 5.3 5.8 5.4 5.2 5.1 5.1 5.3 5.6 5.7 5.4 5.6 5.2 5.5 5.6 5.9 6.0 5.9 6.0 5.9 5.9 5.8 5.8 5.7 5.8 5.8 5.9 6.1 6.1 5.9 5.9 6.0 6.0 5.8 5.8 5.8 5.9 5.8 5.9 6.0 5.8 5.6 5.4 5.4 5.5 5.8 5.8 6.0 6.3
6.1 5.5 5.8 5.9 5.6 5.3 5.1 5.1 5.2 5.7 5.3 5.1 5.2 5.0 5.3 5.5 5.6 5.6 5.9 5.9 5.7 5.7 5.6 5.5 5.6 5.7 5.7 6.0 6.0 5.8 5.7 5.8 5.8 5.7 5.5 5.6 5.8 5.7 5.8 5.8 5.7 5.6 5.5 5.2 5.5 5.8 5.8 5.6 6.1
5.5 5.6 5.6 5.5 5.3 5.5 5.3 4.9 5.0 5.4 5.0 4.5 4.8 4.6 5.1 5.3 5.3 5.5 5.7 5.6 5.6 5.8 5.6 5.4 5.4 5.5 5.6 5.9 5.9 5.8 5.7 5.8 5.8 5.6 5.5 5.5 5.6 5.6 5.6 5.6 5.6 5.6 5.6 5.7 5.7 4.6 4.9 5.3 5.7
6.1 6.0 5.8 5.3 5.2 5.1 5.1 4.9 4.8 5.3 4.7 4.8 4.8 4.7 4.6 4.7 4.9 5.4 5.5 5.5 5.5 5.8 5.7 5.4 5.4 5.4 5.6 5.6 5.8 5.7 5.6 5.8 5.7 5.7 5.6 5.5 5.7 5.7 5.6 5.4 5.4 5.4 5.4 5.6 4.7 5.2 5.0 5.5 5.9
7.1 6.1 5.8 5.8 5.4 5.0 5.1 5.1 4.9 5.0 5.5 4.6 5.0 4.8 4.8 4.7 4.8 5.3 5.4 5.3 5.6 5.7 5.6 5.5 5.3 5.2 5.5 5.6 5.6 5.7 5.6 5.7 5.7 5.6 5.7 5.6 5.6 5.6 5.6 5.4 5.3 5.2 5.2 5.4 5.2 5.5 6.0 6.1 6.6
7.4 7.7 6.3 5.8 5.7 5.0 5.3 5.2 5.4 5.3 5.3 4.8 5.1 5.1 4.9 4.7 4.7 4.9 5.1 5.4 5.5 5.8 5.7 5.6 5.4 5.4 5.5 5.6 5.4 5.5 5.6 5.6 5.8 5.8 5.7 5.8 5.6 5.6 5.6 5.5 5.5 5.5 5.5 5.4 5.4 5.4 5.7 5.9 6.7
7.5 7.7 6.5 5.9 5.7 5.8 5.3 5.3 5.5 5.2 5.9 5.3 5.3 5.1 4.9 4.8 4.9 4.7 5.0 5.3 5.3 5.4 5.6 5.5 5.4 5.3 5.4 5.4 5.4 5.2 5.3 5.5 5.4 5.6 5.8 5.8 5.8 5.7 5.4 5.4 5.4 5.6 5.5 5.4 5.4 5.6 5.4 6.0 6.5
7.8 8.0 7.1 6.7 6.0 6.2 5.7 5.5 5.3 4.6 5.2 5.1 5.2 5.0 5.1 5.1 5.0 4.8 5.1 4.9 5.2 5.3 5.3 5.5 5.5 5.2 5.2 5.2 5.4 5.3 5.3 5.3 5.3 5.3 5.4 5.7 5.7 5.8 5.7 5.6 5.6 5.5 5.6 5.4 5.4 5.6 5.6 5.1 6.3
7.9 7.2 7.2 6.6 6.3 6.1 6.0 5.6 5.1 4.9 5.1 5.1 4.7 4.9 5.3 5.1 4.8 4.7 5.2 5.3 5.1 5.1 5.2 5.4 5.6 5.6 5.4 5.4 5.3 5.5 5.3 5.3 5.3 5.3 5.4 5.5 5.7 5.7 5.7 5.8 5.8 5.7 5.6 5.6 5.6 5.6 5.8 5.4 5.5
7.3 7.0 6.9 7.1 7.2 7.1 6.2 6.2 5.7 5.3 4.7 5.4 5.4 5.0 5.2 5.4 5.3 5.0 5.0 5.3 4.7 5.1 5.2 5.3 5.4 5.6 5.5 5.4 5.4 5.3 5.3 5.4 5.4 5.4 5.5 5.4 5.4 5.4 5.5 5.5 5.6 5.6 5.6 5.6 5.8 5.8 5.9 5.8 5.8
6.9 6.8 6.9 7.0 7.1 7.8 7.2 6.7 5.8 5.7 5.6 5.4 5.4 5.0 5.2 5.3 5.4 5.2 5.0 4.9 4.8 4.8 5.1 5.4 5.4 5.3 5.5 5.6 5.5 5.3 5.3 5.2 5.3 5.4 5.5 5.4 5.4 5.4 5.3 5.4 5.5 5.6 5.5 5.5 5.6 5.8 5.9 6.0 6.0
7.0 7.3 7.3 7.1 7.6 8.2 7.5 7.1 7.5 7.0 7.0 5.9 6.2 6.2 5.6 5.4 5.4 5.3 5.1 5.4 5.2 4.9 5.1 5.2 5.4 5.3 5.2 5.3 5.5 5.4 5.3 5.2 5.1 5.2 5.4 5.4 5.3 5.4 5.3 5.4 5.4 5.6 5.5 5.4 5.5 5.6 5.8 6.0 6.2
7.2 7.3 8.4 7.9 8.3 8.9 7.0 7.8 7.9 7.5 7.1 6.9 5.8 6.2 6.5 5.8 5.6 5.5 5.9 5.9 5.6 5.3 5.1 5.2 5.4 5.5 5.3 5.2 5.3 5.3 5.3 5.2 5.1 5.2 5.2 5.3 5.4 5.5 5.5 5.5 5.5 5.4 5.4 5.6 5.7 5.6 5.6 5.8 6.0
7.6 7.7 8.2 8.5 8.5 8.7 7.5 7.5 7.7 7.8 7.4 7.1 6.2 5.3 5.2 5.5 5.7 5.9 5.7 5.9 5.9 5.7 5.5 5.4 5.2 5.4 5.4 5.3 5.4 5.4 5.3 5.1 5.2 5.3 5.3 5.3 5.4 5.4 5.3 5.4 5.5 5.6 5.5 5.6 5.6 5.8 5.6 5.8 5.8
8.2 8.1 8.5 8.3 9.4 9.2 8.4 8.3 8.5 8.2 8.2 7.5 6.9 6.2 6.2 6.3 6.2 5.7 5.6 6.0 5.9 5.6 5.6 5.4 5.2 5.0 5.1 5.3 5.2 5.3 5.5 5.4 5.5 5.1 5.3 5.4 5.4 5.6 5.4 5.5 5.7 5.6 5.6 5.6 5.7 5.7 5.7 5.7 5.7
7.8 7.9 8.4 9.3 9.4 9.7 9.3 8.7 7.9 7.9 7.9 7.8 7.5 6.8 6.3 6.0 6.5 5.9 6.0 5.9 6.0 5.7 5.4 5.4 5.2 5.0 4.9 5.0 4.9 5.1 5.3 5.7 5.7 5.4 5.2 5.3 5.6 5.5 5.8 5.6 5.5 5.5 5.5 5.5 5.5 5.7 5.7 5.8 5.8
8.7 8.1 8.5 8.6 8.9 9.3 9.0 8.2 8.3 8.1 7.8 7.7 7.4 7.2 6.0 6.9 6.4 6.3 5.8 5.7 5.5 5.6 5.4 5.3 5.2 5.2 5.1 5.0 4.9 5.0 5.2 5.3 5.5 5.6 5.5 5.3 5.4 5.6 5.6 5.6 5.5 5.5 5.6 5.5 5.5 5.5 5.7 5.8 5.8
Wind_Speed
10 9 2 5 3 3 8 7 14 16 16 8 11 6 10 14 8 7 17 10 16 14 16 13 11 11 10 10 10 10 10 11 11 12 11 12 14 14 14 17 17 18 17 18 18 17 16 16 16
6 4 3 3 3 6 7 10 17 13 13 18 10 9 5 8 9 15 14 16 16 15 16 15 12 11 9 10 9 10 9 10 11 10 10 10 12 14 15 16 16 16 17 17 18 18 17 16 15
7 3 3 3 1 5 8 13 15 16 21 11 6 7 5 5 16 8 18 16 16 13 14 16 11 10 10 10 9 9 10 10 10 11 11 10 12 15 15 15 16 17 16 15 15 13 15 14 15
5 3 3 1 7 6 10 15 19 21 14 6 13 10 8 7 8 11 16 15 14 13 17 14 12 11 10 9 10 9 8 8 10 11 11 12 16 10 15 13 16 16 15 12 13 14 13 14 14
3 3 0 2 10 7 10 16 17 22 10 12 5 9 14 7 13 17 15 13 13 12 16 15 10 12 12 12 10 10 9 11 11 11 11 13 15 14 14 14 14 15 15 13 13 13 14 13 13
2 4 1 3 4 4 9 14 15 17 11 11 15 19 12 10 18 15 13 12 12 11 12 15 11 11 13 12 13 12 11 11 11 13 13 16 16 15 16 13 14 14 16 17 16 14 13 12 12
3 1 2 5 5 7 9 7 12 11 13 8 15 14 9 16 16 15 12 12 10 11 13 11 16 13 14 14 13 12 12 11 13 13 15 16 14 14 14 14 13 13 14 15 13 11 12 11 11
3 3 5 6 9 6 7 7 6 10 9 12 14 8 16 19 17 15 14 11 10 8 13 5 12 7 10 15 12 12 13 14 16 16 17 16 15 15 13 15 13 13 12 11 12 11 10 10 10
2 2 5 6 14 7 10 12 5 4 12 6 4 15 22 20 18 15 14 12 10 7 8 7 12 9 12 11 13 13 14 15 16 16 15 18 14 12 11 14 11 11 10 10 10 10 9 8 10
6 3 1 4 8 8 8 10 12 10 12 12 17 23 22 19 18 16 15 13 10 9 8 7 10 10 8 12 10 9 11 12 13 13 12 11 13 8 15 12 8 8 8 8 7 6 4 8 6
1 2 10 10 7 2 12 12 8 13 12 17 22 26 22 19 17 15 14 13 11 10 7 10 9 7 8 9 9 9 11 12 12 10 10 12 11 9 10 10 9 9 4 5 4 4 3 5 5
2 1 7 8 3 4 6 11 9 5 10 14 22 24 23 19 16 15 13 12 12 10 8 9 9 7 9 8 9 9 9 10 10 12 10 9 9 7 7 7 8 6 4 3 3 6 4 3 4
3 3 9 9 9 6 2 7 4 8 11 19 21 21 20 17 15 12 12 12 12 11 10 10 9 8 8 5 8 10 10 9 12 11 9 8 8 7 7 6 6 4 3 4 3 4 5 5 7
3 8 10 10 12 11 12 8 3 8 17 22 21 19 18 16 15 12 11 12 12 11 11 11 9 9 9 9 7 8 7 9 8 10 10 6 8 6 7 5 6 5 3 3 4 5 5 5 7
6 6 13 14 15 15 12 5 7 13 19 21 19 17 16 15 14 12 12 13 13 11 12 12 11 11 9 10 7 8 9 9 9 11 9 8 6 5 3 4 4 5 4 2 3 4 4 6 8
10 7 7 9 11 12 12 13 6 10 18 19 19 17 15 15 14 12 12 13 13 13 13 12 10 11 9 9 7 5 8 8 9 9 9 6 5 4 4 5 5 4 3 3 2 3 4 4 4
8 3 9 8 8 5 3 12 12 10 18 19 18 18 15 14 13 12 13 12 13 13 13 12 11 11 10 8 7 6 7 6 7 7 7 6 6 6 5 5 6 3 4 3 2 3 1 4 3
12 11 11 6 10 16 12 8 15 13 17 18 18 19 16 15 15 13 14 13 12 13 13 12 10 10 9 8 6 6 6 6 6 6 6 6 5 5 4 6 5 5 4 4 4 3 3 2 3
8 5 17 7 9 4 5 12 21 17 15 19 18 18 18 16 14 15 13 13 14 13 13 12 10 10 9 7 7 6 6 6 5 6 5 5 5 6 5 6 4 5 3 4 2 3 2 3 3
8 9 12 8 4 9 8 11 15 14 16 17 18 18 18 17 17 14 14 14 14 14 13 12 11 10 9 7 5 5 4 5 5 6 5 5 6 5 6 2 3 3 6 4 2 3 1 2 4
4 5 11 10 8 10 7 4 13 11 12 17 17 16 18 18 17 16 15 15 14 14 13 12 11 11 9 8 6 5 3 3 2 3 4 6 6 5 5 6 2 4 4 6 2 3 4 4 3
8 3 6 18 12 5 7 3 3 11 15 20 16 20 19 18 16 17 16 16 15 13 13 12 11 11 11 9 8 10 7 6 5 6 5 5 5 5 5 5 6 4 2 3 3 3 3 6 4
4 0 5 11 6 12 7 4 2 17 14 16 14 19 19 19 20 17 18 17 15 13 13 12 11 11 10 9 6 8 8 6 6 4 4 5 6 6 7 5 4 4 4 3 1 1 3 2 4
1 10 3 3 3 5 13 4 5 13 22 26 22 23 20 20 18 17 17 15 14 13 12 13 13 12 11 9 9 8 4 4 2 5 6 6 5 7 7 6 4 5 3 3 3 2 1 4 3
8 13 6 7 6 3 4 9 3 15 19 25 28 25 21 18 18 18 16 14 13 15 15 13 13 13 12 10 9 9 7 6 7 8 7 4 5 4 7 7 6 6 5 4 3 4 3 3 1
15 17 7 7 7 6 4 7 3 4 15 21 23 25 23 21 19 19 17 16 14 16 15 14 14 13 12 11 10 7 6 5 5 9 4 7 5 6 8 8 8 7 7 5 6 6 5 3 4
17 14 17 15 8 6 8 3 6 8 11 15 22 21 21 21 18 17 17 15 17 16 16 15 13 13 12 12 10 8 7 8 4 2 4 6 6 4 7 7 8 9 9 7 6 5 5 3 4
14 14 16 10 9 11 7 7 6 12 13 17 17 24 24 20 18 13 13 14 14 14 12 14 14 13 13 12 10 9 8 7 5 3 5 4 4 5 6 7 7 7 7 8 7 6 6 6 6
13 12 15 15 14 11 9 7 4 8 11 15 16 19 22 21 16 12 10 11 11 13 9 6 12 12 12 12 11 10 8 7 6 5 6 2 4 6 6 6 6 7 7 7 6 6 4 7 6
15 21 17 12 16 9 13 3 3 5 8 8 10 14 17 20 20 14 10 10 7 8 12 9 10 8 10 10 10 11 10 9 8 6 7 4 6 5 6 5 7 6 8 7 7 8 5 7 7
Wind_Direction
194 194 196 239 245 231 113 86 112 120 129 124 116 127 69 17 9 76 133 137 130 140 130 144 135 112 106 97 94 99 99 96 90 86 89 94 97 98 100 98 104 100 104 99 97 97 94 92 89
180 132 252 273 228 133 91 116 129 135 122 131 125 124 86 71 78 120 126 140 144 135 141 132 112 114 110 102 98 94 94 96 92 96 94 105 107 105 102 101 105 103 100 104 99 91 88 86 86
197 221 271 296 155 85 113 128 129 123 137 132 114 49 41 80 125 109 124 139 136 130 129 112 120 118 115 114 111 100 102 106 104 98 89 96 114 113 109 109 108 102 97 98 100 93 84 91 85
205 210 227 200 71 42 119 139 133 136 132 106 121 93 93 124 109 128 137 143 131 143 112 127 124 122 113 108 110 107 101 111 111 102 102 101 112 109 108 106 115 97 92 93 92 86 87 88 86
233 256 134 79 82 85 115 139 143 147 124 131 127 106 114 97 119 128 138 144 133 117 125 124 121 119 110 105 105 99 101 101 111 109 108 104 105 95 110 100 91 89 83 82 98 90 92 86 80
256 316 147 121 101 117 120 144 150 150 126 105 108 121 99 132 137 134 139 132 119 126 127 126 111 104 105 105 106 110 111 111 106 110 107 100 100 112 108 106 98 91 87 87 96 93 90 81 82
116 124 181 149 155 144 120 136 160 143 149 153 134 122 116 155 134 136 138 119 137 127 112 133 124 115 104 103 107 108 112 104 101 106 106 101 101 106 114 109 102 97 96 88 87 92 94 88 88
226 214 183 170 172 151 120 135 122 166 116 122 129 149 152 139 146 135 130 134 113 128 104 132 82 121 115 115 106 108 105 97 101 106 112 110 105 103 110 123 104 106 98 86 84 84 102 88 87
226 191 215 161 164 138 135 138 125 130 147 146 118 139 142 143 143 141 139 134 144 122 133 124 112 109 112 110 112 113 108 113 114 113 119 132 111 116 124 86 105 107 102 89 88 86 100 119 116
240 265 182 122 119 134 160 145 136 146 143 130 116 117 138 151 153 150 151 144 147 141 138 106 126 130 119 107 105 119 140 110 107 114 128 118 99 103 98 95 96 104 108 104 103 102 140 245 101
196 329 117 122 108 83 130 139 154 152 159 151 144 142 148 156 160 156 151 148 148 146 125 151 109 129 120 118 138 134 127 130 115 125 127 114 125 129 109 124 134 132 185 118 151 144 81 69 56
239 101 130 122 117 119 95 123 106 212 144 150 150 148 150 162 163 158 151 147 147 142 150 125 125 122 113 136 116 121 121 130 130 117 126 132 123 119 103 98 114 140 110 67 17 70 47 77 94
230 127 116 124 146 139 74 114 95 98 145 142 148 150 154 159 158 156 148 145 145 151 143 133 132 129 129 160 112 103 137 131 116 138 129 124 121 117 118 92 97 90 102 72 54 49 53 114 121
162 141 146 167 174 159 142 136 0 123 143 144 154 156 157 157 160 153 158 151 151 145 145 135 144 139 143 110 118 126 122 119 127 127 122 123 116 130 128 126 120 126 107 78 49 41 81 81 114
187 139 131 176 173 158 124 112 118 152 150 150 159 161 155 158 155 160 161 155 150 147 143 149 147 141 144 133 138 122 149 130 128 116 130 115 124 126 120 114 141 124 113 135 117 136 150 107 117
171 177 140 153 170 151 171 158 156 194 161 163 160 159 158 159 159 155 157 157 147 140 147 159 152 148 155 131 138 132 119 130 129 133 136 129 116 138 179 154 136 120 156 127 98 119 104 91 95
189 206 133 155 191 162 211 145 198 188 179 168 164 162 162 162 160 157 157 156 148 143 152 159 153 155 155 149 143 142 122 140 132 138 136 129 125 126 136 138 123 189 159 147 140 107 41 110 69
181 194 149 169 174 183 179 157 174 195 193 178 172 170 169 170 173 167 160 159 158 154 157 160 163 152 160 154 162 149 144 147 147 145 128 147 141 146 183 134 141 208 165 163 85 12 68 11 33
249 186 132 138 125 75 195 162 174 188 204 183 174 179 178 178 172 166 172 170 168 167 168 165 169 170 173 172 177 163 158 144 151 139 137 153 145 142 167 144 162 199 164 60 145 166 103 99 46
226 193 127 100 127 107 34 149 168 180 199 197 182 180 177 178 172 177 182 178 181 179 183 177 182 177 196 176 185 183 152 162 155 155 165 180 181 169 160 139 151 242 130 153 59 11 138 90 46
202 222 159 130 116 72 96 24 163 180 232 221 189 199 187 183 182 184 191 190 188 180 186 187 183 181 195 189 176 178 136 132 181 141 179 181 201 190 163 176 107 175 242 144 171 77 345 87 76
164 352 119 141 171 138 206 186 137 174 202 219 211 207 195 183 205 186 193 198 194 187 185 184 184 178 184 199 186 188 182 188 187 194 192 180 182 181 200 192 168 194 126 121 137 82 8 311 77
27 257 131 162 128 139 158 149 184 159 205 207 207 206 204 198 194 197 198 198 199 187 187 184 188 185 192 192 189 194 198 175 184 181 191 183 184 191 184 196 177 170 212 120 93 144 7 83 7
232 178 182 116 318 227 168 198 226 207 201 199 205 216 209 198 202 200 199 189 195 187 189 184 184 190 201 204 197 232 184 193 174 186 205 193 196 185 193 179 184 180 169 183 184 170 183 10 20
178 187 165 210 194 247 153 202 208 204 195 200 196 205 212 203 200 205 198 182 207 195 191 184 186 191 196 208 206 207 212 215 213 209 200 187 200 210 167 187 185 191 193 187 207 201 177 195 312
192 207 220 204 214 168 196 227 143 170 188 207 201 197 200 212 198 201 197 199 193 205 193 192 182 190 193 201 209 211 223 229 237 222 204 197 154 220 149 183 182 189 187 200 197 209 233 188 222
191 207 236 272 232 207 169 223 179 159 193 195 207 202 188 212 207 203 197 201 197 199 198 194 189 190 190 194 195 206 211 216 272 272 247 201 200 167 194 197 194 189 192 195 188 225 219 249 241
242 211 215 235 266 233 178 197 251 189 199 196 199 199 198 192 204 205 204 202 201 200 203 199 192 192 192 197 197 202 209 218 214 212 247 281 226 208 155 200 215 209 199 206 202 190 198 215 236
201 231 227 249 235 267 219 195 136 194 187 188 195 197 195 191 191 187 197 196 184 204 189 197 188 191 205 199 198 214 203 210 209 214 233 257 239 195 184 206 205 217 216 209 210 246 218 225 226
224 213 211 224 226 248 288 50 125 155 174 179 177 184 188 187 195 171 167 165 156 175 179 172 190 205 207 201 210 204 206 208 215 217 236 213 217 208 221 207 209 211 219 208 230 236 215 222 223